Time,TemperatureF,DewpointF,PressureIn,WindDirection,WindDirectionDegrees,WindSpeedMPH,WindSpeedGustMPH,Humidity,HourlyPrecipIn,Conditions,Clouds,dailyrainin,SoftwareType,DateUTC
2015-04-18 00:09:00,61.4,60.0,30.02,NNE,30,0.0,-999.0,95,-99.99,,,0.19,weatherlink.com 1.10,2015-04-18 04:09:00,
2015-04-18 00:24:00,61.3,60.0,30.02,NNE,30,0.0,-999.0,95,-99.99,,,0.19,weatherlink.com 1.10,2015-04-18 04:24:00,
2015-04-18 00:39:00,61.1,60.0,30.02,NNE,30,0.0,-999.0,95,-99.99,,,0.19,weatherlink.com 1.10,2015-04-18 04:39:00,
2015-04-18 00:54:00,61.0,60.0,30.01,NNE,30,0.0,-999.0,95,-99.99,,,0.23,weatherlink.com 1.10,2015-04-18 04:54:00,
2015-04-18 01:09:00,60.7,59.0,30.00,NNE,30,0.0,-999.0,95,-99.99,,,0.23,weatherlink.com 1.10,2015-04-18 05:09:00,
2015-04-18 01:24:00,60.4,59.0,30.00,NNE,30,0.0,-999.0,95,-99.99,,,0.23,weatherlink.com 1.10,2015-04-18 05:24:00,
2015-04-18 01:39:00,60.6,59.0,29.99,NNE,30,0.0,-999.0,95,-99.99,,,0.23,weatherlink.com 1.10,2015-04-18 05:39:00,
2015-04-18 01:54:00,60.8,59.0,29.99,NNE,30,0.0,-999.0,95,-99.99,,,0.23,weatherlink.com 1.10,2015-04-18 05:54:00,
2015-04-18 02:09:00,60.8,59.0,29.98,NNE,30,0.0,-999.0,95,-99.99,,,0.23,weatherlink.com 1.10,2015-04-18 06:09:00,
2015-04-18 02:24:00,60.9,60.0,29.98,NNE,30,0.0,-999.0,95,-99.99,,,0.23,weatherlink.com 1.10,2015-04-18 06:24:00,
2015-04-18 02:39:00,60.6,59.0,29.96,NNE,30,0.0,-999.0,95,-99.99,,,0.23,weatherlink.com 1.10,2015-04-18 06:39:00,
2015-04-18 02:54:00,60.7,59.0,29.96,NNE,30,0.0,-999.0,95,-99.99,,,0.23,weatherlink.com 1.10,2015-04-18 06:54:00,
2015-04-18 03:09:00,60.4,59.0,29.96,NNE,30,0.0,-999.0,95,-99.99,,,0.23,weatherlink.com 1.10,2015-04-18 07:09:00,
2015-04-18 03:24:00,60.7,59.0,29.96,NNE,30,0.0,-999.0,95,-99.99,,,0.36,weatherlink.com 1.10,2015-04-18 07:24:00,
2015-04-18 03:39:00,60.7,59.0,29.96,NNE,30,0.0,-999.0,95,-99.99,,,0.36,weatherlink.com 1.10,2015-04-18 07:39:00,
2015-04-18 03:54:00,60.2,59.0,29.97,NNE,30,0.0,-999.0,95,-99.99,,,0.36,weatherlink.com 1.10,2015-04-18 07:54:00,
2015-04-18 04:09:00,60.2,59.0,29.97,NNE,30,0.0,-999.0,95,-99.99,,,0.36,weatherlink.com 1.10,2015-04-18 08:09:00,
2015-04-18 04:24:00,60.2,59.0,29.98,NNE,30,0.0,-999.0,95,-99.99,,,0.00,weatherlink.com 1.10,2015-04-18 08:24:00,
2015-04-18 04:39:00,60.4,59.0,29.98,NNE,30,0.0,-999.0,95,-99.99,,,0.00,weatherlink.com 1.10,2015-04-18 08:39:00,
2015-04-18 04:54:00,60.3,59.0,29.97,NNE,30,0.0,-999.0,95,-99.99,,,0.12,weatherlink.com 1.10,2015-04-18 08:54:00,
2015-04-18 05:09:00,59.9,59.0,29.97,NNE,30,0.0,-999.0,95,-99.99,,,0.51,weatherlink.com 1.10,2015-04-18 09:09:00,
2015-04-18 05:24:00,59.9,59.0,29.98,NNE,30,0.0,-999.0,95,-99.99,,,0.51,weatherlink.com 1.10,2015-04-18 09:24:00,
2015-04-18 05:39:00,60.0,59.0,29.97,NNE,30,0.0,-999.0,95,-99.99,,,0.51,weatherlink.com 1.10,2015-04-18 09:39:00,
2015-04-18 05:54:00,59.8,58.0,29.98,NNE,30,0.0,-999.0,95,-99.99,,,0.51,weatherlink.com 1.10,2015-04-18 09:54:00,